Change the Weather History Date:

Wednesday, December 21, 2011

  Actual Average Record
Temperature  
Mean Temperature 68 °F -  
Max Temperature 74 °F 73 °F 90 °F (2012)
Min Temperature 61 °F 58 °F 50 °F (2005)
Cooling Degree Days 2    
Growing Degree Days 18 (Base 50)    
Moisture  
Dew Point 60 °F    
Average Humidity 79    
Maximum Humidity 94    
Minimum Humidity 61    
Precipitation  
Precipitation 0.00 in - - ()
Sea Level Pressure  
Sea Level Pressure 29.85 in    
Wind  
Wind Speed 6 mph ()    
Max Wind Speed 14 mph    
Max Gust Speed -    
Visibility 7.6 miles    
Events      
Averages and records for this station are not official NWS values.
T = Trace of Precipitation, MM = Missing Value Source: Averaged Metar Reports

Daily Weather History Graph

Daily Weather History Graph

Search for Another Location

Airport or City:

Trip Planner

Search our weather history database for the weather conditions in past years. The results will help you decide how hot, cold, wet, or windy it might be!

Date:

Astronomy

Dec. 21, 2011 Rise Set
Actual Time 5:15 AM SAST 7:41 PM SAST
Civil Twilight 4:46 AM SAST 8:10 PM SAST
Nautical Twilight 4:10 AM SAST 8:46 PM SAST
Astronomical Twilight 3:30 AM SAST 9:25 PM SAST
Moon 2:05 AM SAST (12/21) 4:19 PM SAST (12/21)
Length of Visible Light 15h 23m
Length of Day
14h 25m
Waning Crescent, 15% of the Moon is Illuminated
Dec 21
Waning Crescent
Dec 24
New
Jan 1
First Quarter
Jan 9
Full
Jan 16
Last Quarter

Hourly Weather History & Observations

Time (SAST) Temp. Dew Point Humidity Pressure Visibility Wind Dir Wind Speed Gust Speed Precip Events Conditions
12:00 AM 66.2 °F 64.4 °F 94% 29.86 in 6.2 mi West 3.5 mph - N/A   Overcast
1:00 AM 66.2 °F 60.8 °F 83% 29.86 in 6.2 mi WNW 4.6 mph - N/A   Overcast
2:00 AM 65 °F 62 °F 86% 29.83 in 12 mi WNW 5.8 mph - -  
2:00 AM 66.2 °F 62.6 °F 88% 29.83 in 6.2 mi WNW 6.9 mph - N/A   Overcast
3:00 AM 64.4 °F 60.8 °F 88% 29.83 in 6.2 mi WNW 6.9 mph - N/A   Overcast
4:00 AM 64.4 °F 59.0 °F 83% 29.83 in 6.2 mi NW 8.1 mph - N/A   Overcast
5:00 AM 64 °F 59 °F 79% 29.82 in 12 mi NNW 6.9 mph - -   Mostly Cloudy
5:00 AM 64.4 °F 59.0 °F 83% 29.83 in 6.2 mi NNW 6.9 mph - N/A   Mostly Cloudy
6:00 AM 62.6 °F 59.0 °F 88% 29.83 in 6.2 mi NW 4.6 mph - N/A   Mostly Cloudy
7:00 AM 64.4 °F 59.0 °F 83% 29.83 in 6.2 mi WNW 6.9 mph - N/A   Overcast
8:00 AM 67 °F 59 °F 70% 29.84 in 12 mi WNW 9.2 mph - -   Mostly Cloudy
8:00 AM 66.2 °F 59.0 °F 78% 29.86 in 6.2 mi WNW 9.2 mph - N/A   Mostly Cloudy
9:00 AM 68.0 °F 59.0 °F 73% 29.86 in 6.2 mi West 9.2 mph - N/A   Mostly Cloudy
10:00 AM 69.8 °F 60.8 °F 73% 29.86 in 6.2 mi WSW 4.6 mph - N/A   Mostly Cloudy
11:00 AM 71 °F 60 °F 61% 29.83 in 12 mi SW 4.6 mph - -   Mostly Cloudy
11:00 AM 69.8 °F 60.8 °F 73% 29.83 in 6.2 mi SSW 6.9 mph - N/A   Mostly Cloudy
12:00 PM 71.6 °F 60.8 °F 69% 29.83 in 6.2 mi SSW 10.4 mph - N/A   Mostly Cloudy
1:00 PM 73.4 °F 62.6 °F 69% 29.83 in 6.2 mi South 9.2 mph - N/A   Scattered Clouds
2:00 PM 71 °F 62 °F 66% 29.82 in 12 mi South 13.8 mph - -   Mostly Cloudy
2:00 PM 69.8 °F 60.8 °F 73% 29.83 in 6.2 mi South 12.7 mph - N/A   Mostly Cloudy
2:12 PM 68.0 °F 62.6 °F 83% 29.83 in 6.2 mi South 12.7 mph - N/A   Mostly Cloudy
3:00 PM 66.2 °F 60.8 °F 83% 29.83 in 6.2 mi South 9.2 mph - N/A   Mostly Cloudy
4:00 PM 66.2 °F 60.8 °F 83% 29.83 in 6.2 mi South 12.7 mph - N/A   Mostly Cloudy
4:42 PM 66.2 °F 60.8 °F 83% 29.83 in 6.2 mi South 10.4 mph - N/A   Mostly Cloudy
5:00 PM 65 °F 60 °F 78% 29.83 in 12 mi SSW 11.5 mph - -   Mostly Cloudy
5:00 PM 66.2 °F 60.8 °F 83% 29.83 in 6.2 mi SSW 10.4 mph - N/A   Mostly Cloudy
5:54 PM 64.4 °F 59.0 °F 83% 29.86 in 6.2 mi SSW 10.4 mph - N/A   Mostly Cloudy
6:00 PM 64.4 °F 59.0 °F 83% 29.86 in 6.2 mi SSW 10.4 mph - N/A   Mostly Cloudy
7:00 PM 64.4 °F 57.2 °F 77% 29.86 in 6.2 mi South 5.8 mph - N/A   Mostly Cloudy
8:00 PM 64 °F 56 °F 70% 29.88 in 19 mi South 3.5 mph - -   Mostly Cloudy
8:00 PM 64.4 °F 57.2 °F 77% 29.89 in 6.2 mi South 2.3 mph - N/A   Mostly Cloudy
9:00 PM 64.4 °F 59.0 °F 83% 29.89 in 6.2 mi NNW 4.6 mph - N/A   Overcast
10:00 PM 62.6 °F 59.0 °F 88% 29.89 in 6.2 mi North 3.5 mph - N/A   Overcast
11:00 PM 62.6 °F 57.2 °F 82% 29.89 in 6.2 mi North 3.5 mph - N/A   Overcast